Home   Weather   Victoria   Past weeks

Flag for USA Past Weather in Victoria, Texas, USA — Yesterday and Last 2 Weeks

Now
67 °F

Clear.


Feels Like: 67 °F
Forecast: 59 / 82 °F
Wind: 3 mph from Northeast

Location: Victoria Regional Airport

Current Time: Sep 30, 2016 at 8:42:12 PM

Latest Report: Sep 30, 2016 at 7:51 PM


Visibility: 10 mi

Pressure: 30.04 "Hg

Humidity: 71%

Dew Point: 57 °F

Location of VictoriaLocation

Past Weather in Victoria — Graph

°F

Victoria Temperature Yesterday

Maximum temperature yesterday: 91 °F (at 1:51 PM)
Minimum temperature yesterday: 63 °F (at 6:51 AM)
Average temperature yesterday: 75 °F

High & Low Weather Summary for the Past Weeks

 TemperatureHumidityPressure
High96 °F (Sep 18, 4:51 PM)100% (Sep 16, 7:51 AM)30.19 "Hg (Sep 16, 7:51 AM)
Low55 °F (Sep 30, 2:51 AM)30% (Sep 29, 12:51 PM)29.85 "Hg (Sep 16, 6:51 PM)
Average79 °F80%29.99 "Hg
* Reported Sep 15 6:51 PM — Sep 30 6:51 PM, Victoria, Weather by CustomWeather, © 2016

Note: Actual official high and low records may vary slightly from our data, if they occured in-between our weather recording intervals... More about our weather records

Advertising

Victoria Weather History for the Previous 24 Hours

Scroll right to see more
 ConditionsComfort  
Time TempWeatherWind HumidityBarometerVisibility
6:51 PM
Fri, Sep 30
73 °FSunny.6 mph59%30.05 "Hg10 mi
5:51 PM80 °FSunny.7 mph39%30.04 "Hg10 mi
4:51 PM82 °FSunny.9 mph34%30.06 "Hg10 mi
3:51 PM82 °FSunny.9 mph34%30.08 "Hg10 mi
2:51 PM80 °FSunny.3 mph36%30.10 "Hg10 mi
1:51 PM80 °FSunny.7 mph38%30.14 "Hg10 mi
12:51 PM78 °FSunny.6 mph40%30.16 "Hg10 mi
11:51 AM78 °FSunny.9 mph40%30.19 "Hg10 mi
10:51 AM75 °FSunny.5 mph50%30.19 "Hg10 mi
9:51 AM69 °FSunny.6 mph66%30.18 "Hg10 mi
8:51 AM62 °FSunny.8 mph80%30.17 "Hg10 mi
7:51 AM56 °FSunny.6 mph93%30.16 "Hg10 mi
6:51 AM55 °FClear.7 mph93%30.16 "Hg10 mi
5:51 AM55 °FClear.7 mph93%30.14 "Hg10 mi
4:51 AM55 °FClear.7 mph93%30.14 "Hg10 mi
3:51 AM55 °FClear.6 mph93%30.14 "Hg10 mi
2:51 AM55 °FClear.6 mph93%30.15 "Hg10 mi
1:51 AM59 °FClear.6 mph87%30.15 "Hg10 mi
12:51 AM61 °FClear.8 mph83%30.15 "Hg10 mi
11:51 PM
Thu, Sep 29
63 °FClear.8 mph78%30.16 "Hg10 mi
10:51 PM64 °FClear.7 mph78%30.15 "Hg10 mi
9:51 PM67 °FClear.8 mph73%30.14 "Hg10 mi
8:51 PM70 °FClear.9 mph66%30.13 "Hg10 mi
Weather by CustomWeather, © 2016

See weather overviewHow to use our weather pages